NOAA-19
1 33591U 09005A 10013.84786335 -.00000048 00000-0 -25039-5 0 04043
2 33591 098.7722 319.3813 0014398 010.0180 350.1303 14.11015527048140
HUBBLE
1 20580U 90037B 10012.78322287 .00000366 00000-0 15235-4 0 5033
2 20580 028.4687 174.3033 0003229 348.3260 011.7260 15.00877270881376
ISS
1 25544U 98067A 10014.97474444 .00017682 00000-0 10803-3 0 3723
2 25544 051.6459 297.7480 0007371 183.7346 278.4013 15.77449251639333
CO-58
1 28895U 05043F 10013.21771845 .00000040 00000-0 17727-4 0 04878
2 28895 098.0366 262.6323 0018635 052.8542 307.4345 14.59833463224379
FALCON
1 30776U 07006E 10014.89052336 .00000482 00000-0 37728-4 0 7430
2 30776 035.4337 254.8178 0001826 307.1870 052.8680 15.03423303156979
MAST
1 31126U 07012K 10014.64649558 .00000154 00000-0 45464-4 0 7777
2 31126 097.9617 064.4310 0094518 344.0292 015.7955 14.53545991145753
CAPE1
1 31130U 07012P 10013.58408571 .00000169 00000-0 49791-4 0 07911
2 31130 097.9604 061.1441 0102753 354.1602 005.8393 14.52123930145223
COMPASS
1 32787U 08021E 10013.33112838 .00000129 00000-0 23131-4 0 05691
2 32787 097.9156 080.0838 0016835 069.9538 290.3509 14.81732392092566
AAUSAT2
1 32788U 08021F 10014.15889449 .00000672 00000-0 91573-4 0 5623
2 32788 097.9152 080.9969 0016534 067.4752 292.8204 14.81868143 92691
DO-64
1 32789U 08021G 10013.70539345 .00000554 00000-0 76508-4 0 05801
2 32789 097.9222 080.8676 0016524 069.7462 290.5491 14.81921136092624
CO-66
1 32791U 08021J 10013.19677092 .00000086 00000-0 17688-4 0 05599
2 32791 097.9169 079.9794 0017259 068.6286 291.6769 14.81542211092505
RS-30
1 32953U 08025A 10013.34809354 .00000010 00000-0 00000-0 0 05018
2 32953 082.5026 125.9645 0019826 081.6465 278.6860 12.43003123074507
TACSAT-3
1 35001U 09028A 10013.60719974 .00003875 00000-0 99761-4 0 02044
2 35001 040.4551 061.4365 0024206 289.2337 070.5859 15.39977695036782
PHARMSAT
1 35002U 09028B 10013.49193405 .00003347 00000-0 84858-4 0 01883
2 35002 040.4699 060.7896 0027208 292.7943 066.9996 15.40666374036775
HAWKSAT1
1 35003U 09028C 10013.49881445 .00006910 00000-0 16128-3 0 01997
2 35003 040.4615 058.8664 0026417 298.9849 060.8317 15.42073154036803
CP6
1 35004U 09028D 10013.48565814 .00007924 00000-0 18255-3 0 01850
2 35004 040.4610 058.7724 0025833 299.3964 060.4267 15.42337516036792
AEROCUB3
1 35005U 09028E 10013.51418725 .00013892 00000-0 31451-3 0 1891
2 35005 040.4746 059.2590 0024941 294.5198 065.3013 15.42460940 36796
DRAGNSAT
1 35690U 09038B 10014.17516524 .00087599 14166-4 24262-3 0 1878
2 35690 051.6370 288.5421 0003123 071.1819 288.9520 15.93838825 26603
POLLUX
1 35693U 09038E 10014.84482118 .00069906 13011-4 21693-3 0 1837
2 35693 051.6378 286.2968 0000668 073.9297 286.2000 15.91864510 26664
CASTOR
1 35694U 09038F 10014.15332188 .00025610 00000-0 10736-3 0 1585
2 35694 051.6407 293.0255 0001979 331.2402 028.8599 15.85401117 26517
METEOR-M
1 35865U 09049A 10013.66840166 .00000176 00000-0 10000-3 0 1014
2 35865 098.7822 068.4083 0003263 087.3159 272.8343 14.21828423 16765
RS-38
1 35869U 09049E 10014.71157963 .00000176 00000-0 10000-3 0 1033
2 35869 098.7808 069.4634 0005466 088.8099 271.3651 14.21975384 16914
